Weather History for KTKV - October, 2013

Change the Weather History Date:

Tuesday, October 22, 2013

  Actual Average (KRHI) Record (KRHI)
Temperature  
Mean Temperature 32 °F 42 °F  
Max Temperature 39 °F 51 °F 78 °F (1947)
Min Temperature 27 °F 32 °F 14 °F (1930)
Degree Days  
Heating Degree Days 33 23  
Month to date heating degree days 435  
Since 1 July heating degree days 867  
Cooling Degree Days 0 0  
Month to date cooling degree days 0  
Year to date cooling degree days 259  
Moisture  
Dew Point 26 °F    
Average Humidity 76    
Maximum Humidity 90    
Minimum Humidity 60    
Precipitation  
Precipitation 0.00 in 0.09 in 2.47 in (1979)
Month to date precipitation 2.37  
Year to date precipitation 27.45  
Snow  
Snow 0.00 in - 4.00 in (1938)
Month to date snowfall  
Since 1 July snowfall  
Since 1 September snowfall  
Snow Depth -    
Sea Level Pressure  
Sea Level Pressure 29.89 in    
Wind  
Wind Speed 9 mph (NW)    
Max Wind Speed 14 mph    
Max Gust Speed 22 mph    
Visibility 10 miles    
Events Snow    
T = Trace of Precipitation, MM = Missing Value Source: NWS Daily Summary

Daily Weather History Graph

Daily Weather History Graph

Search for Another Location

Airport or City:

Trip Planner

Search our weather history database for the weather conditions in past years. The results will help you decide how hot, cold, wet, or windy it might be!

Date:

Astronomy

Oct. 22, 2013 Rise Set
Actual Time 7:25 AM CDT 6:01 PM CDT
Civil Twilight 6:54 AM CDT 6:31 PM CDT
Nautical Twilight 6:20 AM CDT 7:06 PM CDT
Astronomical Twilight 5:46 AM CDT 7:40 PM CDT
Moon 8:34 PM CDT (10/22) 11:01 AM CDT (10/22)
Length of Visible Light 11h 36m
Length of Day
10h 36m
Waning Gibbous, 86% of the Moon is Illuminated
Oct 22
Waning Gibbous
Oct 26
Last Quarter
Nov 3
New
Nov 9
First Quarter
Nov 17
Full

Hourly Weather History & Observations

Time (CDT) Temp. Windchill Dew Point Humidity Pressure Visibility Wind Dir Wind Speed Gust Speed Precip Events Conditions
12:15 AM 32.0 °F 22.1 °F 26.8 °F 81% 29.78 in 10.0 mi West 13.8 mph 19.6 mph N/A   Mostly Cloudy
12:35 AM 32.0 °F 23.0 °F 27.0 °F 82% 29.78 in 10.0 mi West 11.5 mph 20.7 mph N/A   Mostly Cloudy
12:55 AM 32.0 °F 24.2 °F 27.5 °F 83% 29.78 in 10.0 mi West 9.2 mph 19.6 mph N/A   Overcast
1:15 AM 32.0 °F 23.6 °F 27.3 °F 83% 29.79 in 10.0 mi West 10.4 mph 19.6 mph N/A   Mostly Cloudy
1:35 AM 32.2 °F 23.2 °F 27.5 °F 83% 29.80 in 10.0 mi West 11.5 mph 21.9 mph N/A   Overcast
1:55 AM 32.2 °F 22.7 °F 27.3 °F 82% 29.80 in 10.0 mi WNW 12.7 mph 18.4 mph N/A   Overcast
2:15 AM 32.5 °F 22.7 °F 27.5 °F 82% 29.81 in 10.0 mi WNW 13.8 mph 20.7 mph N/A   Overcast
2:35 AM 32.4 °F 22.5 °F 27.5 °F 82% 29.82 in 10.0 mi WNW 13.8 mph 21.9 mph N/A   Overcast
2:55 AM 32.4 °F 23.0 °F 27.5 °F 82% 29.82 in 10.0 mi WNW 12.7 mph 18.4 mph N/A   Overcast
3:15 AM 32.4 °F 23.0 °F 27.5 °F 82% 29.82 in 10.0 mi WNW 12.7 mph 18.4 mph N/A   Overcast
3:35 AM 32.4 °F 24.6 °F 28.0 °F 84% 29.83 in 10.0 mi WNW 9.2 mph - N/A   Overcast
3:55 AM 32.2 °F 25.8 °F 27.9 °F 84% 29.83 in 10.0 mi WNW 6.9 mph 16.1 mph N/A   Overcast
4:15 AM 32.2 °F 25.8 °F 28.2 °F 85% 29.83 in 10.0 mi West 6.9 mph 17.3 mph N/A   Overcast
4:35 AM 32.2 °F 24.4 °F 28.4 °F 86% 29.84 in 10.0 mi West 9.2 mph - N/A   Overcast
4:55 AM 32.4 °F 25.3 °F 28.4 °F 85% 29.85 in 7.0 mi WNW 8.1 mph 16.1 mph N/A   Overcast
5:15 AM 32.0 °F 26.4 °F 28.9 °F 88% 29.85 in 10.0 mi WNW 5.8 mph - N/A   Overcast
5:35 AM 32.0 °F 24.8 °F 28.9 °F 88% 29.85 in 7.0 mi West 8.1 mph - N/A Snow Light Snow
5:55 AM 31.1 °F 23.7 °F 28.6 °F 90% 29.86 in 10.0 mi West 8.1 mph - N/A   Mostly Cloudy
6:15 AM 31.8 °F 25.4 °F 28.9 °F 89% 29.86 in 10.0 mi WNW 6.9 mph - N/A   Overcast
6:35 AM 32.0 °F 24.2 °F 28.8 °F 88% 29.86 in 10.0 mi WNW 9.2 mph - N/A   Overcast
6:55 AM 32.0 °F 25.6 °F 28.4 °F 87% 29.86 in 10.0 mi WNW 6.9 mph - N/A   Overcast
7:15 AM 31.5 °F 24.9 °F 27.9 °F 87% 29.86 in 10.0 mi WNW 6.9 mph - N/A   Mostly Cloudy
7:35 AM 31.6 °F 27.0 °F 28.0 °F 87% 29.87 in 10.0 mi WNW 4.6 mph - N/A   Overcast
7:55 AM 32.0 °F 24.8 °F 28.0 °F 85% 29.88 in 10.0 mi WNW 8.1 mph - N/A   Overcast
8:15 AM 32.0 °F 26.4 °F 28.2 °F 86% 29.88 in 10.0 mi WNW 5.8 mph - N/A   Mostly Cloudy
8:35 AM 32.0 °F 25.6 °F 28.0 °F 85% 29.89 in 10.0 mi WNW 6.9 mph - N/A   Scattered Clouds
8:55 AM 32.9 °F 25.3 °F 28.4 °F 84% 29.89 in 10.0 mi WNW 9.2 mph - N/A   Scattered Clouds
9:15 AM 33.8 °F 26.4 °F 28.2 °F 80% 29.90 in 10.0 mi WNW 9.2 mph - N/A   Mostly Cloudy
9:35 AM 34.7 °F 28.1 °F 28.6 °F 78% 29.90 in 10.0 mi NW 8.1 mph - N/A   Overcast
9:55 AM 34.9 °F 28.3 °F 28.2 °F 77% 29.90 in 10.0 mi NW 8.1 mph - N/A   Overcast
10:15 AM 34.9 °F 28.3 °F 27.5 °F 74% 29.90 in 10.0 mi NNW 8.1 mph - N/A   Overcast
10:35 AM 35.2 °F 28.1 °F 28.0 °F 75% 29.90 in 10.0 mi NNW 9.2 mph - N/A   Mostly Cloudy
10:55 AM 35.8 °F 29.4 °F 27.3 °F 71% 29.90 in 10.0 mi NW 8.1 mph - N/A   Mostly Cloudy
11:15 AM 36.7 °F 29.4 °F 26.6 °F 67% 29.91 in 10.0 mi NNW 10.4 mph - N/A   Overcast
11:35 AM 35.6 °F 28.0 °F 27.1 °F 71% 29.91 in 10.0 mi NW 10.4 mph - N/A   Mostly Cloudy
11:55 AM 37.6 °F 30.0 °F 26.8 °F 65% 29.90 in 10.0 mi NW 11.5 mph 18.4 mph N/A   Mostly Cloudy
12:15 PM 37.9 °F 32.1 °F 26.2 °F 63% 29.90 in 10.0 mi North 8.1 mph - N/A   Mostly Cloudy
12:35 PM 37.6 °F 32.3 °F 25.7 °F 62% 29.91 in 10.0 mi NNW 6.9 mph - N/A   Mostly Cloudy
12:55 PM 37.6 °F 31.6 °F 26.1 °F 63% 29.90 in 10.0 mi NW 8.1 mph - N/A   Overcast
1:15 PM 37.9 °F 32.7 °F 25.0 °F 60% 29.90 in 10.0 mi NW 6.9 mph - N/A   Overcast
1:35 PM 37.6 °F 32.3 °F 25.5 °F 62% 29.90 in 10.0 mi NNW 6.9 mph - N/A   Mostly Cloudy
1:55 PM 37.6 °F 31.6 °F 27.9 °F 68% 29.90 in 10.0 mi North 8.1 mph - N/A   Overcast
2:15 PM 37.9 °F 32.7 °F 25.9 °F 62% 29.90 in 10.0 mi WNW 6.9 mph - N/A   Overcast
2:35 PM 37.6 °F 31.6 °F 24.8 °F 60% 29.90 in 10.0 mi NNW 8.1 mph - N/A   Overcast
2:55 PM 36.5 °F 29.2 °F 26.2 °F 66% 29.90 in 10.0 mi NW 10.4 mph - N/A   Overcast
3:15 PM 35.1 °F 32.2 °F 27.9 °F 75% 29.91 in 10.0 mi NNW 3.5 mph - N/A   Overcast
3:35 PM 36.0 °F 29.0 °F 25.5 °F 66% 29.91 in 10.0 mi NNW 9.2 mph - N/A   Overcast
3:55 PM 36.0 °F 28.5 °F 24.1 °F 62% 29.92 in 10.0 mi NNW 10.4 mph - N/A   Overcast
4:15 PM 35.4 °F 30.5 °F 23.7 °F 62% 29.92 in 10.0 mi NNW 5.8 mph - N/A   Overcast
4:35 PM 34.7 °F 28.8 °F 23.7 °F 64% 29.93 in 10.0 mi NNW 6.9 mph - N/A   Overcast
4:55 PM 34.7 °F 28.8 °F 23.2 °F 63% 29.93 in 10.0 mi NNW 6.9 mph - N/A   Overcast
5:15 PM 34.2 °F 28.2 °F 23.0 °F 64% 29.94 in 10.0 mi NNW 6.9 mph - N/A   Overcast
5:35 PM 33.8 °F 27.0 °F 23.5 °F 66% 29.94 in 10.0 mi NW 8.1 mph - N/A   Overcast
5:55 PM 33.4 °F 27.3 °F 23.5 °F 67% 29.94 in 10.0 mi NW 6.9 mph - N/A   Overcast
6:15 PM 33.1 °F 27.7 °F 23.4 °F 67% 29.94 in 10.0 mi WNW 5.8 mph - N/A   Overcast
6:35 PM 33.1 °F 30.0 °F 23.4 °F 67% 29.94 in 10.0 mi NW 3.5 mph - N/A   Overcast
6:55 PM 32.9 °F 29.8 °F 23.5 °F 68% 29.95 in 10.0 mi NW 3.5 mph - N/A   Overcast
7:15 PM 32.9 °F - 23.9 °F 69% 29.95 in 10.0 mi Calm Calm - N/A   Overcast
7:35 PM 32.5 °F 27.1 °F 24.8 °F 73% 29.95 in 10.0 mi WNW 5.8 mph - N/A   Overcast
7:55 PM 32.2 °F 27.7 °F 25.7 °F 77% 29.95 in 10.0 mi NW 4.6 mph - N/A   Overcast
8:15 PM 32.4 °F 27.9 °F 25.7 °F 76% 29.95 in 10.0 mi NNW 4.6 mph - N/A   Overcast
8:35 PM 32.2 °F 28.9 °F 25.5 °F 76% 29.95 in 10.0 mi NW 3.5 mph - N/A   Overcast
8:55 PM 32.0 °F 27.5 °F 25.7 °F 78% 29.95 in 10.0 mi NW 4.6 mph - N/A   Overcast
9:35 PM 32.0 °F 26.4 °F 25.5 °F 77% 29.95 in 10.0 mi WNW 5.8 mph - N/A   Overcast
9:55 PM 32.0 °F 26.4 °F 25.3 °F 76% 29.95 in 10.0 mi WNW 5.8 mph - N/A   Overcast
10:15 PM 32.0 °F - 24.8 °F 75% 29.95 in 10.0 mi Calm Calm - N/A   Overcast
10:35 PM 30.2 °F 25.4 °F 24.6 °F 80% 29.94 in 10.0 mi West 4.6 mph - N/A   Mostly Cloudy
10:55 PM 30.0 °F - 24.6 °F 80% 29.94 in 10.0 mi Calm Calm - N/A   Mostly Cloudy
11:15 PM 28.6 °F 24.8 °F 23.9 °F 83% 29.94 in 10.0 mi West 3.5 mph - N/A   Scattered Clouds
11:35 PM 27.3 °F - 23.5 °F 86% 29.93 in 10.0 mi Calm Calm - N/A   Clear
11:55 PM 27.9 °F - 24.6 °F 88% 29.93 in 10.0 mi Calm Calm - N/A   Mostly Cloudy